Location: Pilipovskiye Korichintsy
(49.1833°N, 27.4667°E)
Time: 22:17:25
(UTC+00:00)

Cosmos 1741 Rocket - Pass Details

Date: 14 July 2020
Orbit: 761 x 783 km, 74.0° (Epoch: 10 August)

Event Time Altitude Azimuth Distance (km) Brightness Sun altitude
Exits shadow 01:23:58 - 199° (SSW) 2,547 6.1 -7.8°
Reaches altitude 10° 01:24:38 10° 199° (SSW) 2,289 5.9 -7.7°
Maximum altitude 01:29:49 84° 113° (ESE) 773 4.1 -7.1°
Drops below altitude 10° 01:35:05 10° 25° (NNE) 2,312 7.8 -6.5°
Sets 01:37:28 0° 24° (NNE) 3,245 8.8 -6.2°
